Home   Weather   Košice   Past weeks

Flag for Slovakia Past Weather in Košice, Slovakia — Yesterday and Last 2 Weeks

48 °F

Light rain. Fog.

Feels Like: 46 °F
Forecast: 39 / 52 °F
Wind: 5 mph from Northeast

Location: Kosice - Barca

Current Time: Oct 22, 2016 at 11:02:44 AM

Latest Report: Oct 22, 2016 at 10:30 AM

Visibility: 3 mi

Pressure: 29.92 "Hg

Humidity: 94%

Dew Point: 46 °F

Location of KošiceLocation

Past Weather in Košice — Graph


Košice Temperature Yesterday

Maximum temperature yesterday: 50 °F (at 12:00 AM)
Minimum temperature yesterday: 48 °F (at 5:30 AM)
Average temperature yesterday: 49 °F

High & Low Weather Summary for the Past Weeks

High61 °F (Oct 15, 3:30 PM)100% (Oct 8, 3:30 AM)30.42 "Hg (Oct 8, 3:30 AM)
Low32 °F (Oct 8, 3:30 AM)52% (Oct 15, 3:30 PM)29.83 "Hg (Oct 12, 5:00 AM)
Average47 °F83%30.11 "Hg
* Reported Oct 7 10:00 AM — Oct 22 10:00 AM, Košice, Weather by CustomWeather, © 2016

Note: Actual official high and low records may vary slightly from our data, if they occured in-between our weather recording intervals... More about our weather records


Košice Weather History for the Previous 24 Hours

Scroll right to see more
Time TempWeatherWind HumidityBarometerVisibility
10:00 AM
Sat, Oct 22
48 °FLight rain. Fog.6 mph94%29.92 "Hg3 mi
9:30 AM48 °FLight rain. Fog.9 mph94%29.92 "Hg3 mi
9:00 AM48 °FLight rain. More clouds than sun.12 mph94%29.92 "HgN/A
8:30 AM50 °FLight rain. Fog.1 mph94%29.92 "Hg2 mi
8:00 AM50 °FLight rain. Fog.1 mph94%29.89 "Hg2 mi
7:30 AM50 °FLight rain. Fog.2 mph94%29.89 "Hg1 mi
7:00 AM50 °FDrizzle. Fog.2 mph94%29.89 "Hg2 mi
6:30 AM50 °FDrizzle. Low clouds.2 mph94%29.89 "Hg4 mi
6:00 AM50 °FLow clouds.3 mph94%29.89 "Hg6 mi
5:30 AM50 °FPassing clouds.2 mph94%29.89 "Hg5 mi
5:00 AM50 °FLow clouds.3 mph94%29.89 "Hg4 mi
4:30 AM50 °FLight rain. Fog.2 mph94%29.89 "Hg3 mi
4:00 AM50 °FLight rain. Fog.1 mph94%29.89 "Hg2 mi
3:30 AM50 °FLight rain. Fog.1 mph94%29.92 "Hg2 mi
3:00 AM50 °FLight rain. Fog.2 mph94%29.92 "Hg1 mi
2:00 AM48 °FLight rain. Fog.1 mph100%29.92 "Hg1 mi
1:30 AM48 °FLight rain. Fog.2 mph100%29.92 "Hg1 mi
1:00 AM48 °FDrizzle. Fog.2 mph100%29.92 "Hg1 mi
12:30 AM48 °FDrizzle. Fog.2 mph100%29.92 "Hg1 mi
12:00 AM48 °FDrizzle. Fog.1 mph100%29.92 "Hg1 mi
11:30 PM
Fri, Oct 21
48 °FDrizzle. Fog.2 mph100%29.92 "Hg1 mi
11:00 PM48 °FDrizzle. Fog.1 mph100%29.95 "Hg1 mi
10:30 PM48 °FDrizzle. Fog.2 mph100%29.95 "Hg1 mi
10:00 PM48 °FDrizzle. Fog.1 mph100%29.95 "Hg1 mi
9:30 PM48 °FDrizzle. Fog.1 mph100%29.95 "Hg1 mi
9:00 PM48 °FDrizzle. Fog.2 mph100%29.95 "Hg2 mi
8:30 PM48 °FDrizzle. Fog.3 mph100%29.95 "Hg2 mi
8:00 PM48 °FPartly cloudy.1 mph100%29.95 "Hg4 mi
7:30 PM48 °FLight rain. Fog.1 mph100%29.95 "Hg2 mi
7:00 PM48 °FLight rain. Fog.1 mph100%29.95 "Hg2 mi
6:30 PM48 °FLight rain. Fog.1 mph100%29.95 "Hg2 mi
6:00 PM48 °FLight rain. Fog.2 mph100%29.95 "Hg2 mi
5:30 PM48 °FLight rain. Fog.1 mph100%29.95 "Hg2 mi
5:00 PM48 °FLight rain. Fog.2 mph100%29.95 "Hg2 mi
4:30 PM48 °FLight rain. Fog.2 mph100%29.95 "Hg2 mi
4:00 PM48 °FLight rain. Fog.5 mph94%29.95 "Hg2 mi
3:30 PM48 °FLight rain. Fog.6 mph94%29.95 "Hg2 mi
3:00 PM48 °FRain. Fog.3 mph100%29.95 "Hg3 mi
2:30 PM48 °FRain. Fog.3 mph100%29.95 "Hg2 mi
2:00 PM48 °FLight rain. Fog.5 mph100%29.95 "Hg2 mi
1:30 PM48 °FLight rain. Fog.2 mph100%29.95 "Hg2 mi
1:00 PM48 °FLight rain. Fog.2 mph100%29.98 "Hg2 mi
12:30 PM48 °FLight rain. Fog.1 mph94%29.98 "Hg3 mi
12:00 PM48 °FLight rain. More clouds than sun.3 mph94%29.98 "Hg5 mi
11:30 AM48 °FLight rain. More clouds than sun.5 mph94%29.98 "Hg5 mi
11:00 AM48 °FRain. More clouds than sun.3 mph94%30.01 "Hg4 mi
Weather by CustomWeather, © 2016

See weather overviewHow to use our weather pages